Location: Bucquoy
(50.1391°N, 2.7097°E)
Time: 03:47:33
(UTC+00:00)

BREEZE-M R/B - Pass Details

Date: 06 May 2021
Orbit: 311 x 4501 km, 49.7° (Epoch: 21 June)

Event Time Altitude Azimuth Distance (km) Brightness Sun altitude
Exits shadow 02:20:00 15° 265° (W) 1,773 5.0 -15.2°
Maximum altitude 02:23:19 34° 205° (SSW) 1,448 4.4 -14.8°
Drops below altitude 10° 02:30:44 10° 146° (SE) 3,762 6.9 -14.1°
Sets 02:35:35 0° 139° (SE) 5,509 7.8 -13.6°
